period_start,C,m1,H,J0,J1,J2,J3,J4,J5,JA,JB,JC,JD,JJ,JK,JN,#
2014-05-11 00:00:54,0.01,0.48,0.00,19.31,26.30,27.65,5.98,31.04,1003.97,2042.99,3311.23,3198.97,3456.98,349.48,323.67,13.97,0000 0000 0000 0000 000000
2014-05-11 00:01:54,-0.01,0.48,0.00,19.32,26.30,27.63,6.05,31.17,1003.94,2042.99,3311.20,3198.97,3456.98,349.21,323.24,13.98,0000 0000 0000 0000 000000
2014-05-11 00:02:55,0.01,0.48,0.00,19.31,26.30,27.65,6.17,31.17,1003.93,2042.99,3311.13,3198.98,3456.98,350.66,324.65,13.98,0000 0000 0000 0000 000000
2014-05-11 00:03:55,0.00,0.48,0.00,19.32,26.29,27.67,6.08,31.00,1003.94,2042.99,3311.07,3198.94,3456.97,350.20,324.13,13.99,0000 0000 0000 0000 000000
2014-05-11 00:04:55,0.02,0.48,0.00,19.33,26.29,27.68,6.07,31.08,1003.93,2042.99,3311.02,3198.82,3456.95,349.56,323.53,13.99,0000 0000 0000 0000 000000
2014-05-11 00:05:55,0.05,0.48,0.00,19.35,26.29,27.68,6.05,31.00,1003.92,2042.99,3311.00,3198.59,3456.83,350.15,324.05,14.00,0000 0000 0000 0000 000000
2014-05-11 00:06:56,0.05,0.48,0.00,19.32,26.28,27.66,6.03,31.17,1003.92,2042.99,3311.00,3198.48,3456.70,349.68,323.79,14.01,0000 0000 0000 0000 000000
2014-05-11 00:07:56,0.04,0.48,0.00,19.29,26.27,27.62,5.92,31.42,1003.91,2042.99,3310.98,3198.43,3456.53,349.00,323.05,14.01,0000 0000 0000 0000 000000
2014-05-11 00:08:56,0.03,0.48,0.00,19.30,26.27,27.59,6.01,31.29,1003.92,2042.99,3310.96,3198.35,3456.42,349.30,323.32,14.02,0000 0000 0000 0000 000000
2014-05-11 00:09:57,0.01,0.48,0.00,19.29,26.27,27.62,6.07,31.25,1003.92,2042.99,3310.96,3198.28,3456.33,350.47,324.42,14.02,0000 0000 0000 0000 000000
2014-05-11 00:10:57,0.04,0.48,0.00,19.28,26.27,27.59,6.02,31.21,1003.92,2042.99,3310.96,3198.16,3456.15,349.16,323.48,14.03,0000 0000 0000 0000 000000
2014-05-11 00:11:57,0.04,0.48,0.00,19.30,26.27,27.61,5.97,31.33,1003.92,2042.99,3310.96,3198.12,3456.08,350.26,324.21,14.04,0000 0000 0000 0000 000000
2014-05-11 00:12:57,0.01,0.48,0.00,19.31,26.27,27.62,5.98,31.17,1003.92,2042.99,3310.96,3198.09,3456.07,350.07,324.03,14.04,0000 0000 0000 0000 000000
2014-05-11 00:13:58,0.01,0.48,0.00,19.33,26.27,27.64,6.23,31.46,1003.92,2042.99,3310.93,3198.09,3456.05,350.63,324.29,14.05,0000 0000 0000 0000 000000
2014-05-11 00:14:58,0.00,0.48,0.00,19.32,26.27,27.65,6.07,31.17,1003.92,2043.00,3310.78,3198.08,3456.05,349.73,323.68,14.05,0000 0000 0000 0000 000000
2014-05-11 00:15:58,0.03,0.48,0.00,19.33,26.27,27.62,6.04,31.29,1003.92,2043.00,3310.48,3198.03,3456.03,349.92,323.87,14.06,0000 0000 0000 0000 000000
2014-05-11 00:16:59,0.06,0.48,0.00,19.31,26.26,27.61,6.08,31.25,1003.92,2043.01,3310.25,3198.02,3456.02,350.51,324.43,14.06,0000 0000 0000 0000 000000
2014-05-11 00:17:59,0.04,0.48,0.00,19.29,26.26,27.63,6.03,31.46,1003.93,2043.01,3310.13,3198.00,3456.00,350.05,323.80,14.07,0000 0000 0000 0000 000000
2014-05-11 00:18:59,0.01,0.48,0.00,19.28,26.25,27.62,5.98,31.54,1003.92,2043.02,3310.05,3198.00,3456.00,349.27,323.31,14.08,0000 0000 0000 0000 000000
2014-05-11 00:19:59,0.01,0.48,0.00,19.27,26.25,27.61,5.97,31.33,1003.94,2043.02,3310.02,3198.00,3456.00,348.89,322.98,14.08,0000 0000 0000 0000 000000
2014-05-11 00:21:00,0.00,0.48,0.00,19.29,26.25,27.66,6.09,31.25,1003.95,2043.01,3310.00,3198.00,3456.00,350.73,324.28,14.09,0000 0000 0000 0000 000000
2014-05-11 00:22:00,-0.01,0.48,0.00,19.30,26.25,27.61,6.06,31.42,1003.94,2043.00,3310.00,3198.00,3456.00,350.34,324.18,14.09,0000 0000 0000 0000 000000
2014-05-11 00:23:00,-0.00,0.48,0.00,19.30,26.25,27.61,5.97,31.29,1003.93,2043.00,3310.00,3198.00,3456.00,348.06,322.17,14.10,0000 0000 0000 0000 000000
2014-05-11 00:24:00,0.00,0.48,0.00,19.29,26.25,27.64,6.00,31.25,1003.93,2043.00,3310.00,3198.00,3456.00,350.89,324.79,14.11,0000 0000 0000 0000 000000
2014-05-11 00:25:00,0.00,0.48,0.00,19.29,26.25,27.63,6.07,31.63,1003.93,2043.00,3310.00,3198.00,3456.00,349.74,323.73,14.11,0000 0000 0000 0000 000000
2014-05-11 00:26:01,0.00,0.48,0.00,19.28,26.25,27.64,6.17,31.63,1003.92,2043.00,3310.00,3198.00,3455.99,350.82,324.75,14.12,0000 0000 0000 0000 000000
2014-05-11 00:27:01,0.00,0.48,0.00,19.27,26.24,27.63,6.17,31.58,1003.92,2043.02,3310.00,3198.00,3455.98,350.84,324.79,14.12,0000 0000 0000 0000 000000
2014-05-11 00:28:01,0.02,0.48,0.00,19.27,26.24,27.63,6.03,31.29,1003.92,2043.02,3309.97,3198.00,3455.99,349.66,323.69,14.13,0000 0000 0000 0000 000000
2014-05-11 00:29:01,0.00,0.48,0.00,19.28,26.23,27.62,6.08,31.38,1003.93,2043.01,3309.98,3198.00,3455.97,350.43,324.39,14.13,0000 0000 0000 0000 000000
2014-05-11 00:30:02,-0.01,0.48,0.00,19.27,26.23,27.63,6.04,31.29,1003.94,2043.03,3309.96,3198.00,3455.96,349.20,323.53,14.14,0000 0000 0000 0000 000000
2014-05-11 00:31:02,0.01,0.48,0.00,19.28,26.22,27.61,6.03,31.42,1003.94,2043.04,3309.97,3198.00,3455.95,350.35,324.38,14.15,0000 0000 0000 0000 000000
2014-05-11 00:32:02,0.00,0.48,0.00,19.29,26.22,27.58,5.89,31.25,1003.97,2043.04,3309.97,3198.00,3455.95,348.93,323.01,14.15,0000 0000 0000 0000 000000
2014-05-11 00:33:02,0.02,0.48,0.00,19.25,26.22,27.56,5.99,31.08,1004.11,2043.03,3309.85,3198.00,3455.86,350.40,324.44,14.16,0000 0000 0000 0000 000000
2014-05-11 00:34:03,0.01,0.48,0.00,19.23,26.22,27.57,6.10,31.00,1004.22,2043.02,3309.73,3197.98,3455.77,350.26,324.64,14.16,0000 0000 0000 0000 000000
2014-05-11 00:35:03,0.02,0.48,0.00,19.22,26.22,27.61,6.01,31.17,1004.22,2043.05,3309.62,3197.99,3455.82,349.89,324.04,14.17,0000 0000 0000 0000 000000
2014-05-11 00:36:03,0.01,0.48,0.00,19.25,26.22,27.62,6.04,31.21,1004.09,2043.05,3309.70,3197.99,3455.81,349.39,323.89,14.18,0000 0000 0000 0000 000000
2014-05-11 00:37:03,0.00,0.48,0.00,19.27,26.22,27.61,6.10,31.38,1004.17,2043.11,3309.74,3197.98,3455.86,349.37,323.57,14.18,0000 0000 0000 0000 000000
2014-05-11 00:38:04,0.04,0.48,0.00,19.29,26.22,27.61,6.00,31.29,1004.24,2043.10,3309.55,3197.99,3455.81,349.80,323.90,14.19,0000 0000 0000 0000 000000
2014-05-11 00:39:04,0.02,0.48,0.00,19.30,26.22,27.60,6.11,31.25,1004.11,2043.07,3309.29,3197.99,3455.50,350.15,324.17,14.19,0000 0000 0000 0000 000000
2014-05-11 00:40:04,0.06,0.48,0.00,19.32,26.22,27.53,6.08,31.17,1003.99,2043.10,3309.26,3197.98,3455.34,349.96,323.69,14.20,0000 0000 0000 0000 000000
2014-05-11 00:41:04,0.01,0.48,0.00,19.31,26.21,27.47,6.07,31.17,1004.02,2043.19,3309.15,3197.96,3455.30,350.10,324.11,14.21,0000 0000 0000 0000 000000
2014-05-11 00:42:04,0.11,0.48,0.00,19.32,26.20,27.49,5.95,31.13,1003.99,2043.27,3309.10,3197.92,3455.22,349.38,323.13,14.21,0000 0000 0000 0000 000000
2014-05-11 00:43:05,0.08,0.48,0.00,19.31,26.20,27.51,6.02,31.00,1003.97,2043.41,3309.05,3197.95,3455.14,349.52,323.81,14.22,0000 0000 0000 0000 000000
2014-05-11 00:44:05,0.16,0.49,0.00,19.29,26.20,27.58,6.09,31.17,1003.97,2043.42,3309.01,3197.94,3455.09,350.89,325.04,14.22,0000 0000 0000 0000 000000
2014-05-11 00:45:05,-0.04,0.49,0.00,19.30,26.20,27.58,6.09,30.96,1003.99,2043.31,3309.00,3197.85,3455.05,349.16,323.22,14.23,0000 0000 0000 0000 000000
2014-05-11 00:46:06,-0.06,0.49,0.00,19.30,26.20,27.55,6.04,31.13,1003.95,2043.30,3308.96,3197.75,3455.03,350.15,324.12,14.23,0000 0000 0000 0000 000000
2014-05-11 00:47:06,0.09,0.49,0.00,19.30,26.20,27.53,5.98,31.38,1003.94,2043.39,3308.96,3197.74,3455.02,349.69,323.69,14.24,0000 0000 0000 0000 000000
2014-05-11 00:48:06,0.07,0.49,0.00,19.28,26.20,27.53,6.05,31.13,1003.97,2043.54,3308.98,3197.78,3455.00,350.18,324.17,14.25,0000 0000 0000 0000 000000
2014-05-11 00:49:06,0.07,0.49,0.00,19.27,26.20,27.52,5.95,31.21,1004.01,2043.59,3308.95,3197.68,3455.02,349.00,323.11,14.25,0000 0000 0000 0000 000000
2014-05-11 00:50:06,0.04,0.49,0.00,19.27,26.20,27.56,6.17,31.17,1003.96,2043.68,3308.91,3197.53,3455.01,351.13,325.07,14.26,0000 0000 0000 0000 000000
2014-05-11 00:51:07,0.15,0.49,0.00,19.25,26.20,27.54,5.94,30.96,1003.94,2043.65,3308.77,3197.35,3455.00,349.38,323.46,14.26,0000 0000 0000 0000 000000
2014-05-11 00:52:07,0.04,0.49,0.00,19.24,26.19,27.59,6.01,31.00,1004.10,2043.67,3308.54,3197.28,3455.00,349.72,323.57,14.27,0000 0000 0000 0000 000000
2014-05-11 00:53:07,0.00,0.49,0.00,19.25,26.19,27.59,6.13,31.04,1004.19,2043.72,3308.30,3197.15,3455.00,350.59,324.65,14.28,0000 0000 0000 0000 000000
2014-05-11 00:54:08,0.15,0.49,0.00,19.27,26.19,27.57,6.03,31.00,1004.15,2043.68,3308.12,3197.11,3454.99,349.85,323.94,14.28,0000 0000 0000 0000 000000
2014-05-11 00:55:08,-0.03,0.49,0.00,19.30,26.18,27.55,6.11,30.79,1004.16,2043.78,3308.09,3197.09,3454.99,349.87,323.92,14.29,0000 0000 0000 0000 000000
2014-05-11 00:56:08,0.11,0.49,0.00,19.29,26.17,27.52,5.92,30.96,1004.23,2043.83,3308.08,3197.07,3454.99,349.33,323.68,14.29,0000 0000 0000 0000 000000
2014-05-11 00:57:08,0.03,0.49,0.00,19.29,26.17,27.50,5.95,31.04,1004.14,2043.84,3308.07,3197.05,3454.99,349.92,324.28,14.30,0000 0000 0000 0000 000000
2014-05-11 00:58:08,0.02,0.49,0.00,19.32,26.17,27.54,6.07,31.00,1004.13,2043.85,3308.05,3197.04,3454.98,349.97,323.98,14.30,0000 0000 0000 0000 000000
2014-05-11 00:59:08,0.00,0.49,0.00,19.34,26.17,27.53,5.94,30.92,1004.19,2043.92,3308.02,3197.02,3454.99,350.29,324.36,14.31,0000 0000 0000 0000 000000
2014-05-11 01:00:09,0.06,0.49,0.00,19.36,26.17,27.49,6.09,31.04,1004.06,2043.94,3308.00,3197.00,3454.94,350.61,324.52,14.32,0000 0000 0000 0000 000000
2014-05-11 01:01:09,0.01,0.49,0.00,19.38,26.17,27.47,5.96,31.13,1004.00,2043.95,3307.92,3197.00,3454.93,350.22,324.19,14.32,0000 0000 0000 0000 000000
2014-05-11 01:02:09,0.02,0.49,0.00,19.35,26.17,27.48,5.93,31.13,1003.98,2043.97,3307.67,3197.00,3454.85,349.25,323.23,14.33,0000 0000 0000 0000 000000
2014-05-11 01:03:09,0.05,0.49,0.00,19.34,26.17,27.52,5.97,31.04,1003.98,2043.95,3307.47,3197.00,3454.63,350.01,323.61,14.33,0000 0000 0000 0000 000000
2014-05-11 01:04:10,0.05,0.49,0.00,19.34,26.17,27.52,5.88,31.17,1003.93,2043.97,3307.39,3197.00,3454.43,348.94,322.70,14.34,0000 0000 0000 0000 000000
2014-05-11 01:05:10,0.03,0.49,0.00,19.35,26.17,27.55,6.09,31.21,1003.93,2043.96,3307.45,3197.00,3454.28,350.09,323.91,14.35,0000 0000 0000 0000 000000
2014-05-11 01:06:10,0.01,0.49,0.00,19.36,26.17,27.55,6.03,31.38,1003.92,2043.98,3307.59,3196.99,3454.14,349.48,323.42,14.35,0000 0000 0000 0000 000000
2014-05-11 01:07:10,0.01,0.49,0.00,19.36,26.17,27.54,5.92,31.33,1003.92,2043.97,3307.33,3196.98,3454.06,349.71,323.64,14.36,0000 0000 0000 0000 000000
2014-05-11 01:08:11,0.05,0.49,0.00,19.35,26.17,27.56,6.08,31.33,1003.92,2043.97,3307.17,3196.96,3454.02,350.19,324.09,14.36,0000 0000 0000 0000 000000
2014-05-11 01:09:11,0.02,0.49,0.00,19.34,26.16,27.57,6.20,31.38,1003.92,2043.96,3307.14,3196.98,3454.00,351.10,324.94,14.37,0000 0000 0000 0000 000000
2014-05-11 01:10:12,0.00,0.49,0.00,19.35,26.16,27.57,6.00,31.46,1003.92,2043.96,3307.09,3196.99,3454.00,349.25,323.11,14.37,0000 0000 0000 0000 000000
2014-05-11 01:11:12,0.00,0.49,0.00,19.35,26.16,27.57,6.05,31.63,1003.92,2043.97,3307.04,3196.99,3454.00,349.77,323.70,14.38,0000 0000 0000 0000 000000
2014-05-11 01:12:12,0.01,0.49,0.00,19.36,26.15,27.56,6.08,31.38,1003.92,2043.98,3307.02,3196.97,3454.00,350.90,324.57,14.39,0000 0000 0000 0000 000000
2014-05-11 01:13:13,0.02,0.49,0.00,19.36,26.15,27.54,6.07,31.21,1003.93,2043.97,3307.01,3196.93,3454.00,350.01,324.03,14.39,0000 0000 0000 0000 000000
2014-05-11 01:14:13,-0.01,0.49,0.00,19.35,26.15,27.46,6.04,31.42,1003.93,2043.97,3307.01,3196.89,3454.00,349.53,323.48,14.40,0000 0000 0000 0000 000000
2014-05-11 01:15:13,0.01,0.49,0.00,19.35,26.15,27.49,6.16,31.29,1003.92,2043.98,3307.01,3196.83,3454.00,350.26,324.26,14.40,0000 0000 0000 0000 000000
2014-05-11 01:16:13,0.02,0.49,0.00,19.36,26.15,27.55,6.04,31.38,1003.92,2043.98,3307.00,3196.71,3453.99,350.21,323.67,14.41,0000 0000 0000 0000 000000
2014-05-11 01:17:14,0.02,0.49,0.00,19.37,26.15,27.51,6.04,31.54,1003.94,2043.98,3307.00,3196.44,3453.99,349.36,323.31,14.42,0000 0000 0000 0000 000000
2014-05-11 01:18:14,0.06,0.49,0.00,19.36,26.15,27.55,5.98,31.67,1003.94,2043.99,3307.00,3196.26,3453.95,350.10,324.01,14.42,0000 0000 0000 0000 000000
2014-05-11 01:19:14,0.05,0.49,0.00,19.33,26.15,27.52,6.13,31.38,1003.95,2043.99,3306.98,3196.16,3453.95,349.44,323.43,14.43,0000 0000 0000 0000 000000
2014-05-11 01:20:14,0.02,0.49,0.00,19.31,26.15,27.55,6.04,31.08,1004.02,2043.98,3306.96,3196.11,3453.90,350.24,324.44,14.43,0000 0000 0000 0000 000000
2014-05-11 01:21:14,0.01,0.49,0.00,19.29,26.15,27.56,5.98,31.29,1004.09,2043.99,3306.98,3196.17,3453.82,350.18,324.24,14.44,0000 0000 0000 0000 000000
2014-05-11 01:22:14,-0.01,0.49,0.00,19.29,26.15,27.54,5.93,31.13,1004.20,2043.98,3306.98,3196.20,3453.84,349.62,323.37,14.44,0000 0000 0000 0000 000000
2014-05-11 01:23:15,0.00,0.49,0.00,19.26,26.15,27.51,6.07,31.21,1004.29,2043.99,3306.99,3196.10,3453.75,349.52,323.42,14.45,0000 0000 0000 0000 000000
2014-05-11 01:24:15,0.03,0.49,0.00,19.26,26.15,27.56,6.00,31.33,1004.34,2043.98,3306.93,3196.05,3453.42,349.45,323.64,14.46,0000 0000 0000 0000 000000
2014-05-11 01:25:15,0.05,0.49,0.00,19.30,26.15,27.53,6.09,31.33,1004.36,2043.96,3306.54,3196.02,3453.21,349.83,323.96,14.46,0000 0000 0000 0000 000000
2014-05-11 01:26:16,0.07,0.49,0.00,19.32,26.15,27.55,6.10,31.42,1004.39,2043.97,3306.24,3196.00,3453.10,351.34,325.34,14.47,0000 0000 0000 0000 000000
2014-05-11 01:27:16,0.06,0.49,0.00,19.33,26.15,27.54,5.84,31.50,1004.40,2043.97,3306.10,3196.00,3453.07,348.85,322.84,14.47,0000 0000 0000 0000 000000
2014-05-11 01:28:16,0.01,0.49,0.00,19.32,26.15,27.54,6.08,31.17,1004.41,2043.98,3306.05,3196.00,3453.03,350.29,324.37,14.48,0000 0000 0000 0000 000000
2014-05-11 01:29:16,0.03,0.49,0.00,19.29,26.15,27.51,6.07,31.13,1004.41,2043.99,3306.03,3196.00,3453.03,350.08,324.21,14.49,0000 0000 0000 0000 000000
2014-05-11 01:30:17,0.01,0.49,0.00,19.28,26.15,27.51,6.05,31.29,1004.41,2043.99,3306.07,3196.00,3453.01,350.06,324.19,14.49,0000 0000 0000 0000 000000
2014-05-11 01:31:17,0.00,0.49,0.00,19.29,26.14,27.47,6.09,31.04,1004.41,2043.99,3306.05,3196.00,3453.00,350.12,323.84,14.50,0000 0000 0000 0000 000000
2014-05-11 01:32:17,0.00,0.49,0.00,19.30,26.14,27.52,6.08,31.00,1004.42,2043.99,3306.02,3196.00,3453.00,350.93,324.99,14.50,0000 0000 0000 0000 000000
2014-05-11 01:33:17,0.00,0.49,0.00,19.32,26.14,27.50,6.02,31.08,1004.41,2043.99,3306.00,3196.00,3453.00,349.66,323.78,14.51,0000 0000 0000 0000 000000
2014-05-11 01:34:18,0.00,0.49,0.00,19.34,26.14,27.51,6.00,30.96,1004.42,2043.99,3306.00,3196.00,3453.00,350.05,324.13,14.52,0000 0000 0000 0000 000000
2014-05-11 01:35:18,0.00,0.49,0.00,19.35,26.14,27.48,6.13,31.00,1004.41,2043.99,3305.99,3196.00,3453.00,350.33,324.37,14.52,0000 0000 0000 0000 000000
2014-05-11 01:36:18,0.00,0.49,0.00,19.32,26.13,27.48,6.08,30.92,1004.43,2043.99,3305.95,3196.00,3453.00,349.83,323.95,14.53,0000 0000 0000 0000 000000
2014-05-11 01:37:19,0.00,0.49,0.00,19.29,26.13,27.51,5.96,31.08,1004.42,2043.99,3305.94,3195.99,3452.98,349.43,323.61,14.53,0000 0000 0000 0000 000000
2014-05-11 01:38:19,0.00,0.49,0.00,19.34,26.13,27.55,6.09,30.88,1004.43,2043.99,3305.92,3195.98,3452.99,349.94,324.11,14.54,0000 0000 0000 0000 000000
2014-05-11 01:39:19,0.00,0.49,0.00,19.34,26.13,27.52,5.97,31.17,1004.42,2043.99,3305.92,3195.99,3452.99,349.85,324.03,14.54,0000 0000 0000 0000 000000
2014-05-11 01:40:20,0.01,0.49,0.00,19.35,26.12,27.47,6.07,31.08,1004.42,2043.99,3305.57,3195.99,3452.99,349.74,324.03,14.55,0000 0000 0000 0000 000000
2014-05-11 01:41:20,0.04,0.50,0.00,19.36,26.12,27.51,5.93,30.88,1004.43,2043.99,3305.26,3195.97,3452.99,349.17,323.29,14.56,0000 0000 0000 0000 000000
2014-05-11 01:42:20,0.04,0.50,0.00,19.36,26.12,27.54,5.97,31.17,1004.43,2043.99,3305.12,3195.98,3452.99,349.65,323.74,14.56,0000 0000 0000 0000 000000
2014-05-11 01:43:21,0.01,0.50,0.00,19.36,26.12,27.55,6.20,30.92,1004.43,2043.99,3305.09,3195.99,3452.97,351.00,324.99,14.57,0000 0000 0000 0000 000000
2014-05-11 01:44:21,-0.00,0.50,0.00,19.37,26.12,27.52,6.15,31.08,1004.43,2043.99,3305.18,3195.97,3452.97,349.54,323.63,14.57,0000 0000 0000 0000 000000
2014-05-11 01:45:21,-0.00,0.50,0.00,19.37,26.12,27.49,6.06,31.29,1004.44,2043.99,3305.16,3195.96,3452.93,350.22,324.26,14.58,0000 0000 0000 0000 000000
2014-05-11 01:46:22,0.02,0.50,0.00,19.38,26.12,27.53,6.04,30.92,1004.46,2043.99,3305.07,3195.92,3452.74,350.20,324.24,14.59,0000 0000 0000 0000 000000
2014-05-11 01:47:22,0.04,0.50,0.00,19.39,26.12,27.53,6.23,31.04,1004.46,2043.99,3305.02,3195.85,3452.48,351.56,325.48,14.59,0000 0000 0000 0000 000000
2014-05-11 01:48:22,0.05,0.50,0.00,19.38,26.12,27.56,6.07,31.25,1004.46,2043.99,3305.02,3195.75,3452.23,349.49,323.57,14.60,0000 0000 0000 0000 000000
2014-05-11 01:49:23,0.04,0.50,0.00,19.38,26.12,27.58,6.04,31.04,1004.47,2043.99,3305.01,3195.53,3452.12,350.34,324.36,14.60,0000 0000 0000 0000 000000
2014-05-11 01:50:23,0.06,0.50,0.00,19.38,26.12,27.57,6.13,31.25,1004.48,2043.99,3305.00,3195.32,3452.05,350.15,324.19,14.61,0000 0000 0000 0000 000000
2014-05-11 01:51:23,0.05,0.50,0.00,19.39,26.12,27.57,6.03,31.04,1004.55,2043.99,3304.99,3195.23,3452.03,349.80,323.87,14.61,0000 0000 0000 0000 000000
2014-05-11 01:52:23,0.02,0.50,0.00,19.40,26.12,27.57,6.16,31.04,1004.54,2043.99,3304.99,3195.16,3452.03,350.24,324.65,14.62,0000 0000 0000 0000 000000
2014-05-11 01:53:24,0.02,0.50,0.00,19.40,26.12,27.61,5.98,31.00,1004.54,2043.99,3304.97,3195.09,3452.01,349.72,323.87,14.63,0000 0000 0000 0000 000000
2014-05-11 01:54:24,0.01,0.50,0.00,19.37,26.12,27.62,6.13,31.00,1004.54,2043.99,3304.94,3195.04,3452.00,350.64,324.68,14.63,0000 0000 0000 0000 000000
2014-05-11 01:55:24,0.02,0.50,0.00,19.39,26.12,27.65,6.06,30.92,1004.62,2043.99,3304.74,3195.01,3452.00,349.65,323.77,14.64,0000 0000 0000 0000 000000
2014-05-11 01:56:24,0.02,0.50,0.00,19.40,26.12,27.62,6.10,31.04,1004.61,2043.99,3304.67,3195.01,3452.00,350.22,323.89,14.64,0000 0000 0000 0000 000000
2014-05-11 01:57:25,0.00,0.50,0.00,19.42,26.12,27.57,5.97,30.83,1004.72,2043.99,3304.57,3195.00,3452.00,349.08,323.17,14.65,0000 0000 0000 0000 000000
2014-05-11 01:58:25,0.01,0.50,0.00,19.43,26.12,27.55,6.02,30.96,1004.72,2043.99,3304.34,3195.00,3452.00,349.62,324.26,14.66,0000 0000 0000 0000 000000
2014-05-11 01:59:25,0.03,0.50,0.00,19.44,26.12,27.59,6.17,31.00,1004.68,2043.99,3304.17,3195.00,3452.00,350.09,324.14,14.66,0000 0000 0000 0000 000000
2014-05-11 02:00:25,0.01,0.50,0.00,19.40,26.12,27.59,6.08,31.04,1004.66,2043.99,3304.11,3195.00,3452.00,350.43,324.49,14.67,0000 0000 0000 0000 000000
2014-05-11 02:01:26,0.00,0.50,0.00,19.38,26.12,27.58,6.06,31.00,1004.65,2043.99,3304.06,3195.00,3451.99,349.69,323.91,14.67,0000 0000 0000 0000 000000
2014-05-11 02:02:26,0.00,0.50,0.00,19.40,26.12,27.57,6.11,31.00,1004.73,2043.99,3304.02,3195.00,3451.97,349.96,324.08,14.68,0000 0000 0000 0000 000000
2014-05-11 02:03:26,0.01,0.50,0.00,19.43,26.12,27.59,5.93,31.25,1004.72,2043.99,3304.00,3195.00,3451.95,348.44,322.65,14.69,0000 0000 0000 0000 000000
2014-05-11 02:04:27,0.00,0.50,0.00,19.44,26.12,27.59,5.93,31.13,1004.71,2043.99,3304.00,3194.99,3451.85,350.01,324.08,14.69,0000 0000 0000 0000 000000
2014-05-11 02:05:27,0.01,0.50,0.00,19.45,26.12,27.59,5.98,30.88,1004.69,2043.99,3304.00,3194.98,3451.77,350.17,324.20,14.70,0000 0000 0000 0000 000000
2014-05-11 02:06:27,0.02,0.50,0.00,19.47,26.12,27.61,5.88,31.17,1004.74,2043.99,3304.00,3194.98,3451.54,349.01,323.13,14.70,0000 0000 0000 0000 000000
2014-05-11 02:07:28,0.02,0.50,0.00,19.46,26.12,27.63,6.07,31.00,1004.75,2043.99,3304.00,3194.98,3451.42,350.06,324.12,14.71,0000 0000 0000 0000 000000
2014-05-11 02:08:28,0.01,0.50,0.00,19.41,26.12,27.65,5.90,31.13,1004.81,2043.99,3304.00,3194.98,3451.20,349.21,323.40,14.71,0000 0000 0000 0000 000000
2014-05-11 02:09:28,0.02,0.50,0.00,19.41,26.12,27.67,6.05,31.04,1004.86,2043.99,3304.00,3194.98,3451.10,349.51,323.68,14.72,0000 0000 0000 0000 000000
2014-05-11 02:10:29,0.01,0.50,0.00,19.41,26.12,27.70,6.17,31.04,1004.87,2043.99,3304.00,3194.96,3451.06,350.31,324.44,14.73,0000 0000 0000 0000 000000
2014-05-11 02:11:29,0.00,0.50,0.00,19.39,26.12,27.66,6.05,31.04,1004.89,2043.99,3304.00,3194.95,3451.05,349.69,323.89,14.73,0000 0000 0000 0000 000000
2014-05-11 02:12:29,0.00,0.50,0.00,19.39,26.12,27.69,6.09,30.88,1004.89,2043.99,3303.95,3194.91,3451.04,350.68,324.64,14.74,0000 0000 0000 0000 000000
2014-05-11 02:13:29,0.02,0.50,0.00,19.39,26.12,27.68,6.25,31.33,1004.89,2043.99,3303.86,3194.80,3451.01,349.63,323.83,14.74,0000 0000 0000 0000 000000
2014-05-11 02:14:30,0.03,0.50,0.00,19.41,26.12,27.65,6.07,30.96,1004.90,2043.99,3303.64,3194.66,3451.00,349.89,323.68,14.75,0000 0000 0000 0000 000000
2014-05-11 02:15:30,0.04,0.50,0.00,19.40,26.12,27.66,6.11,31.00,1004.90,2043.99,3303.37,3194.66,3451.00,350.32,324.47,14.76,0000 0000 0000 0000 000000
2014-05-11 02:16:30,0.06,0.50,0.00,19.43,26.12,27.65,6.05,31.08,1004.90,2043.99,3303.32,3194.39,3451.00,350.23,324.36,14.76,0000 0000 0000 0000 000000
2014-05-11 02:17:30,0.07,0.50,0.00,19.46,26.12,27.68,6.14,31.00,1004.90,2043.99,3303.16,3194.22,3450.98,349.91,324.03,14.77,0000 0000 0000 0000 000000
2014-05-11 02:18:31,0.04,0.50,0.00,19.46,26.12,27.71,6.13,31.04,1004.90,2043.99,3303.07,3194.17,3450.99,351.21,325.23,14.77,0000 0000 0000 0000 000000
2014-05-11 02:19:31,0.02,0.50,0.00,19.47,26.12,27.74,6.03,31.13,1004.90,2043.99,3303.03,3194.11,3450.98,349.72,323.84,14.78,0000 0000 0000 0000 000000
2014-05-11 02:20:31,0.01,0.50,0.00,19.45,26.12,27.70,6.16,30.92,1004.90,2043.99,3303.01,3194.09,3450.98,351.25,325.28,14.78,0000 0000 0000 0000 000000
2014-05-11 02:21:31,0.01,0.50,0.00,19.44,26.12,27.68,6.11,31.00,1004.90,2043.99,3303.00,3194.06,3450.96,350.36,324.45,14.79,0000 0000 0000 0000 000000
2014-05-11 02:22:32,0.01,0.50,0.00,19.47,26.12,27.67,6.01,31.13,1004.90,2043.99,3303.00,3194.03,3450.95,349.94,324.34,14.80,0000 0000 0000 0000 000000
2014-05-11 02:23:32,0.00,0.50,0.00,19.50,26.12,27.67,6.14,30.75,1004.90,2043.99,3303.00,3194.01,3450.93,350.63,324.65,14.80,0000 0000 0000 0000 000000
2014-05-11 02:24:32,0.00,0.50,0.00,19.48,26.12,27.69,6.04,31.00,1004.90,2043.99,3302.99,3194.00,3450.82,349.92,324.01,14.81,0000 0000 0000 0000 000000
2014-05-11 02:25:33,0.01,0.50,0.00,19.47,26.12,27.71,5.93,31.25,1004.90,2043.99,3302.95,3194.00,3450.66,348.64,322.52,14.81,0000 0000 0000 0000 000000
2014-05-11 02:26:33,0.04,0.50,0.00,19.45,26.12,27.74,6.01,31.17,1004.93,2043.99,3302.76,3194.00,3450.34,349.46,323.84,14.82,0000 0000 0000 0000 000000
2014-05-11 02:27:33,0.07,0.50,0.00,19.42,26.12,27.72,6.06,31.08,1004.90,2043.99,3302.41,3194.00,3450.15,351.11,325.40,14.83,0000 0000 0000 0000 000000
2014-05-11 02:28:34,0.05,0.50,0.00,19.42,26.12,27.75,6.10,31.00,1004.90,2043.99,3302.31,3194.00,3450.07,350.45,324.59,14.83,0000 0000 0000 0000 000000
2014-05-11 02:29:34,0.01,0.50,0.00,19.44,26.12,27.73,6.13,31.04,1004.91,2043.99,3302.38,3194.00,3450.06,350.00,324.17,14.84,0000 0000 0000 0000 000000
2014-05-11 02:30:34,0.01,0.50,0.00,19.45,26.12,27.71,6.10,30.79,1004.91,2043.99,3302.22,3194.00,3450.04,350.34,324.15,14.84,0000 0000 0000 0000 000000
2014-05-11 02:31:34,0.01,0.50,0.00,19.45,26.12,27.69,5.98,30.92,1004.90,2043.99,3302.13,3194.00,3450.03,350.33,324.82,14.85,0000 0000 0000 0000 000000
2014-05-11 02:32:35,0.01,0.50,0.00,19.46,26.12,27.72,6.06,30.96,1004.90,2043.99,3302.09,3194.00,3450.01,349.84,323.82,14.86,0000 0000 0000 0000 000000
2014-05-11 02:33:35,0.01,0.50,0.00,19.45,26.12,27.70,6.11,30.92,1004.90,2043.99,3302.09,3194.00,3450.00,350.32,323.98,14.86,0000 0000 0000 0000 000000
2014-05-11 02:34:35,0.00,0.50,0.00,19.45,26.12,27.68,5.97,31.25,1004.90,2043.99,3302.05,3194.00,3450.00,349.18,323.36,14.87,0000 0000 0000 0000 000000
2014-05-11 02:35:35,0.00,0.50,0.00,19.45,26.12,27.69,6.00,31.00,1004.90,2043.99,3302.03,3193.97,3450.00,349.84,323.98,14.87,0000 0000 0000 0000 000000
2014-05-11 02:36:36,0.00,0.50,0.00,19.46,26.12,27.74,5.99,31.13,1004.91,2043.99,3302.01,3193.97,3450.00,348.81,323.12,14.88,0000 0000 0000 0000 000000